Location: Newark
(13.8117°N, 3.6025°W)
Time: 10:28:51
(UTC+00:00)

Vanguard 2 - Pass Details

Date: 26 August 2019
Orbit: 554 x 2937 km, 32.9° (Epoch: 15 September)

Event Time Altitude Azimuth Distance (km) Brightness Sun altitude
Rises 08:19:32 0° 222° (SW) 2,995 10.2 32.2°
Reaches altitude 10° 08:22:10 10° 213° (SSW) 1,931 9.4 32.8°
Maximum altitude 08:26:00 35° 146° (SE) 899 8.6 33.7°
Drops below altitude 10° 08:29:40 10° 79° (E) 1,856 10.9 34.6°
Sets 08:32:09 0° 70° (ENE) 2,858 11.4 35.2°
